Date String (YYYY-MM-DD hh:mm:ss) UTC,Instrument flags,Ambient pressure (hPa),Sample flow (lpm),Bypass flow (lpm),Sample temperature (°C),Ambient temperature (°C),ASC tube jacket temperature (°C),LED temperature (°C),Box temperature (°C),Sample RH (%),Span deviation,Mass concentration (μg/m³),Mass concentration (μg/m³),Mass concentration (μg/m³)
DateTimeUTC,F1_M11,P_M11,Q1_M11,Q2_M11,T1_M11,T2_M11,T3_M11,T4_M11,T5_M11,U1_M11,ZSPAN_M11,X2_M11,X0_M11,X1_M11
2022-05-05 07:00:00,,0825.9,5.00,0.00,25.6,24.9,00.0,34.5,27.5,23.7,-002.8,0005.58,0009.14,0004.94
2022-05-05 07:01:00,,0825.8,5.00,0.00,25.6,24.9,00.0,34.5,27.5,23.6,-003.3,0005.66,0009.05,0005.04
2022-05-05 07:02:00,,0825.9,4.99,0.00,25.6,24.9,00.0,34.5,27.5,23.6,-003.4,0005.76,0009.28,0005.13
2022-05-05 07:03:00,,0825.9,5.01,0.00,25.6,24.9,00.0,34.5,27.5,23.6,-003.5,0005.90,0009.53,0005.24
2022-05-05 07:04:00,,0825.8,4.99,0.00,25.6,24.9,00.0,34.5,27.5,23.6,-003.5,0006.06,0009.87,0005.35
2022-05-05 07:05:00,,0825.8,5.00,0.00,25.7,25.0,00.0,34.5,27.5,23.6,-003.0,0006.21,0010.06,0005.45
2022-05-05 07:06:00,,0825.8,5.00,0.00,25.7,25.0,00.0,34.5,27.6,23.6,-002.8,0006.26,0010.18,0005.51
2022-05-05 07:07:00,,0825.7,5.01,0.00,25.7,25.0,00.0,34.6,27.6,23.6,-002.7,0006.30,0010.31,0005.53
2022-05-05 07:08:00,,0825.8,4.98,0.00,25.7,25.0,00.0,34.6,27.6,24.6,-002.4,0006.31,0010.34,0005.55
2022-05-05 07:09:00,,0825.7,5.01,0.00,25.7,25.0,00.0,34.6,27.6,25.0,-002.6,0006.29,0010.30,0005.56
2022-05-05 07:10:00,,0825.7,4.99,0.00,25.7,25.0,00.0,34.6,27.6,23.9,-002.5,0006.34,0010.65,0005.57
2022-05-05 07:11:00,,0825.6,5.02,0.00,25.7,25.0,00.0,34.6,27.6,23.7,-002.5,0006.40,0011.00,0005.58
2022-05-05 07:12:00,,0825.6,4.99,0.00,25.7,25.0,00.0,34.6,27.6,23.7,-001.8,0006.42,0011.09,0005.60
2022-05-05 07:13:00,,0825.6,5.01,0.00,25.7,25.0,00.0,34.6,27.6,23.6,-001.8,0006.47,0011.09,0005.62
2022-05-05 07:14:00,,0825.6,4.99,0.00,25.7,25.0,00.0,34.6,27.6,23.5,-001.7,0006.48,0011.02,0005.64
2022-05-05 07:15:00,,0825.6,5.00,0.00,25.7,25.0,00.0,34.6,27.6,23.5,-001.6,0006.48,0010.98,0005.64
2022-05-05 07:16:00,,0825.6,4.99,0.00,25.7,25.0,00.0,34.6,27.6,23.5,-001.6,0006.44,0010.82,0005.64
2022-05-05 07:17:00,,0825.6,5.00,0.00,25.7,25.0,00.0,34.6,27.6,23.5,-001.5,0006.42,0010.72,0005.65
2022-05-05 07:18:00,,0825.6,4.99,0.00,25.7,25.0,00.0,34.6,27.6,23.4,-001.1,0006.42,0010.61,0005.66
2022-05-05 07:19:00,,0825.6,5.00,0.00,25.7,25.0,00.0,34.6,27.6,23.4,-001.2,0006.40,0010.53,0005.67
2022-05-05 07:20:00,,0825.6,4.99,0.00,25.8,25.0,00.0,34.6,27.6,23.4,-001.0,0006.43,0010.53,0005.69
2022-05-05 07:21:00,,0825.5,5.00,0.00,25.7,25.0,00.0,34.6,27.6,23.4,-000.9,0006.44,0010.47,0005.69
2022-05-05 07:22:00,,0825.5,5.01,0.00,25.7,25.0,00.0,34.6,27.6,23.5,-000.2,0006.45,0010.30,0005.70
2022-05-05 07:23:00,,0825.5,5.00,0.00,25.7,25.0,00.0,34.7,27.6,23.5,-001.7,0006.45,0010.22,0005.72
2022-05-05 07:24:00,,0825.5,5.01,0.00,25.7,25.0,00.0,34.7,27.6,23.6,-001.1,0006.45,0010.19,0005.73
2022-05-05 07:25:00,,0825.5,4.99,0.00,25.7,25.0,00.0,34.7,27.6,23.6,0000.0,0006.44,0010.08,0005.74
2022-05-05 07:26:00,,0825.5,5.01,0.00,25.7,24.9,00.0,34.7,27.6,23.5,0000.6,0006.41,0010.32,0005.74
2022-05-05 07:27:00,,0825.5,4.98,0.00,25.7,24.8,00.0,34.6,27.5,23.6,0000.5,0006.40,0010.86,0005.73
2022-05-05 07:28:00,,0825.5,5.01,0.00,25.6,24.8,00.0,34.6,27.4,23.7,0001.0,0006.40,0010.86,0005.74
2022-05-05 07:29:00,,0825.4,5.00,0.00,25.6,24.7,00.0,34.6,27.4,23.8,-000.1,0006.38,0010.87,0005.73
2022-05-05 07:30:00,,0825.3,5.01,0.00,25.6,24.7,00.0,34.6,27.4,23.8,0000.3,0006.39,0010.87,0005.73
2022-05-05 07:31:00,,0825.3,4.99,0.00,25.5,24.7,00.0,34.6,27.3,23.9,0000.8,0006.40,0010.86,0005.73
2022-05-05 07:32:00,,0825.4,5.01,0.00,25.5,24.7,00.0,34.6,27.4,23.9,0000.5,0006.36,0010.69,0005.72
2022-05-05 07:33:00,,0825.3,4.99,0.00,25.5,24.7,00.0,34.6,27.4,24.0,0000.0,0006.30,0010.50,0005.72
2022-05-05 07:34:00,,0825.4,5.02,0.00,25.5,24.8,00.0,34.6,27.4,24.1,0000.8,0006.34,0010.57,0005.73
2022-05-05 07:35:00,,0825.4,4.99,0.00,25.6,24.8,00.0,34.6,27.4,24.0,0000.5,0006.33,0010.51,0005.73
2022-05-05 07:36:00,,0825.4,5.01,0.00,25.6,24.8,00.0,34.6,27.4,24.0,-000.3,0006.32,0010.50,0005.72
2022-05-05 07:37:00,,0825.3,4.99,0.00,25.6,24.8,00.0,34.6,27.4,24.0,-001.0,0006.33,0010.33,0005.69
2022-05-05 07:38:00,,0825.3,5.01,0.00,25.6,24.8,00.0,34.6,27.4,23.9,-001.4,0006.36,0009.88,0005.70
2022-05-05 07:39:00,,0825.3,4.98,0.00,25.6,24.8,00.0,34.5,27.4,24.0,-001.8,0006.36,0009.77,0005.69
2022-05-05 07:40:00,,0825.3,5.00,0.00,25.6,24.8,00.0,34.6,27.4,24.0,-001.3,0006.40,0009.85,0005.70
2022-05-05 07:41:00,,0825.3,5.00,0.00,25.6,24.8,00.0,34.5,27.4,23.9,-001.5,0006.46,0010.00,0005.69
2022-05-05 07:42:00,,0825.3,5.00,0.00,25.6,24.8,00.0,34.5,27.4,23.9,-001.6,0006.43,0010.06,0005.67
2022-05-05 07:43:00,,0825.3,5.00,0.00,25.6,24.8,00.0,34.5,27.4,23.9,-001.9,0006.43,0010.16,0005.67
2022-05-05 07:44:00,,0825.3,4.99,0.00,25.6,24.8,00.0,34.5,27.4,23.9,-001.8,0006.42,0010.31,0005.65
2022-05-05 07:45:00,,0825.3,5.01,0.00,25.6,24.8,00.0,34.5,27.4,23.8,-001.3,0006.41,0010.52,0005.61
2022-05-05 07:46:00,,0825.2,4.99,0.00,25.6,24.8,00.0,34.5,27.4,23.7,-001.8,0006.38,0010.52,0005.57
2022-05-05 07:47:00,,0825.3,5.01,0.00,25.6,24.8,00.0,34.5,27.4,23.7,-000.4,0006.39,0010.63,0005.55
2022-05-05 07:48:00,,0825.3,5.00,0.00,25.6,24.8,00.0,34.5,27.4,23.8,-000.8,0006.37,0010.55,0005.55
2022-05-05 07:49:00,,0825.2,4.99,0.00,25.6,24.8,00.0,34.5,27.5,23.8,0000.0,0006.33,0010.44,0005.52
2022-05-05 07:50:00,,0825.2,5.00,0.00,25.6,24.8,00.0,34.5,27.4,23.8,0000.0,0006.32,0010.43,0005.51
2022-05-05 07:51:00,,0825.2,4.99,0.00,25.6,24.8,00.0,34.5,27.4,23.7,0000.0,0006.25,0010.30,0005.47
2022-05-05 07:52:00,,0825.3,5.01,0.00,25.6,24.8,00.0,34.5,27.4,23.7,0000.0,0006.14,0010.10,0005.43
2022-05-05 07:53:00,,0825.2,4.99,0.00,25.6,24.8,00.0,34.5,27.4,23.7,0000.0,0006.10,0010.16,0005.40
2022-05-05 07:54:00,,0825.2,5.00,0.00,25.6,24.8,00.0,34.5,27.4,23.7,-001.8,0006.06,0010.14,0005.38
2022-05-05 07:55:00,,0825.2,4.99,0.00,25.6,24.8,00.0,34.5,27.4,23.6,-002.6,0006.06,0010.02,0005.38
2022-05-05 07:56:00,,0825.2,5.01,0.00,25.6,24.8,00.0,34.5,27.4,23.6,-002.8,0006.01,0009.61,0005.40
2022-05-05 07:57:00,,0825.2,4.99,0.00,25.6,24.8,00.0,34.5,27.4,23.5,-003.4,0006.02,0009.81,0005.42
2022-05-05 07:58:00,,0825.2,5.00,0.00,25.6,24.8,00.0,34.5,27.4,23.4,-002.8,0006.01,0010.03,0005.43
2022-05-05 07:59:00,,0825.1,5.00,0.00,25.6,24.8,00.0,34.5,27.4,23.5,-002.6,0006.04,0010.18,0005.44
